GW2465 Weather Reports


time (UTC)temp
F
wind
direction
speed
knots
gust
knots
rain 1hr
in
rain 24hr
in
rain mn
in
humidity
%
barometer
mb
20260504204553 68 213 3.5 7.8 0.00 0.00 0.00 35 1008.9
20260504203107 67 242 4.3 8.7 0.00 0.00 0.00 36 1009.0
20260504201549 68 215 3.5 9.6 0.00 0.00 0.00 38 1009.3
20260504200049 67 237 4.3 11.3 0.00 0.00 0.00 36 1009.4
20260504194557 67 257 4.3 9.6 0.00 0.00 0.00 36 1009.5
20260504193051 66 219 3.5 12.2 0.00 0.00 0.00 37 1009.6
20260504191547 67 230 5.2 11.3 0.00 0.00 0.00 36 1009.8
20260504190113 66 341 4.3 11.3 0.00 0.00 0.00 37 1009.8
20260504184558 66 204 3.5 7.8 0.00 0.00 0.00 38 1010.1
20260504183045 66 190 2.6 7.8 0.00 0.00 0.00 38 1010.3
20260504181545 66 249 3.5 10.4 0.00 0.00 0.00 38 1010.5
20260504180044 66 262 2.6 9.6 0.00 0.00 0.00 38 1010.5
20260504174600 65 181 5.2 8.7 0.00 0.00 0.00 38 1010.7
20260504173053 64 220 4.3 9.6 0.00 0.00 0.00 40 1010.8
20260504171548 64 181 3.5 9.6 0.00 0.00 0.00 38 1010.9
20260504081546 47 263 2.6 6.1 0.00 0.00 0.00 50 1013.1
20260504044554 47 226 1.7 3.5 0.00 0.00 0.00 51 1013.1
20260504043047 47 215 1.7 4.3 0.00 0.00 0.00 51 1013.0
20260504041546 47 223 1.7 4.3 0.00 0.00 0.00 51 1012.9
20260504040045 47 248 1.7 3.5 0.00 0.00 0.00 50 1012.9
20260504034551 47 230 2.6 5.2 0.00 0.00 0.00 50 1012.7
20260504033054 47 0 0.0 3.5 0.00 0.00 0.00 50 1012.7
20260504031540 47 244 0.9 3.5 0.00 0.00 0.00 50 1012.7
20260504030048 48 218 1.7 3.5 0.00 0.00 0.00 49 1012.7
20260504024546 48 217 1.7 3.5 0.00 0.00 0.00 49 1012.6
20260504023045 48 232 1.7 3.5 0.00 0.00 0.00 48 1012.7
20260504021541 48 198 1.7 4.3 0.00 0.00 0.00 48 1012.7
20260504020048 49 228 1.7 5.2 0.00 0.00 0.00 47 1012.7
20260504014550 49 246 1.7 3.5 0.00 0.00 0.00 47 1012.7
20260504013052 49 210 1.7 4.3 0.00 0.00 0.00 46 1012.7
20260504011550 50 205 1.7 5.2 0.00 0.00 0.00 45 1012.4
20260504010056 50 232 2.6 5.2 0.00 0.00 0.00 44 1012.4
20260504004550 51 267 1.7 6.1 0.00 0.00 0.00 43 1012.4
20260504003047 51 240 1.7 3.5 0.00 0.00 0.00 42 1012.3
20260504001605 51 213 1.7 3.5 0.00 0.00 0.00 41 1012.1
20260504000048 52 250 1.7 7.0 0.00 0.00 0.00 40 1011.9
20260503234547 52 261 2.6 6.1 0.00 0.00 0.00 39 1011.7
20260503233050 53 317 1.7 7.0 0.00 0.00 0.00 39 1011.6
20260503231547 53 338 1.7 9.6 0.00 0.00 0.00 38 1011.5
20260503230046 53 219 2.6 7.0 0.00 0.00 0.00 37 1011.5
20260503224544 54 298 3.5 8.7 0.00 0.00 0.00 36 1011.5
20260503223044 54 246 4.3 9.6 0.00 0.00 0.00 36 1011.3
20260503221545 54 336 2.6 9.6 0.00 0.00 0.00 37 1011.3
20260503214540 54 316 2.6 12.2 0.00 0.00 0.00 37 1011.3
20260503213049 55 302 3.5 8.7 0.00 0.00 0.00 35 1011.2
20260503211559 55 312 3.5 10.4 0.00 0.00 0.00 36 1010.9
20260503210041 54 234 4.3 11.3 0.00 0.00 0.00 35 1011.1